Погода в Ветлуге

Погода в Ветлуге : погода сейчас, прогноз погоды и архив. Всё, что Вы хотите узнать о погоде в Ветлуге!

Хотите узнать прогноз погоды в Ветлуге? Тогда Вам сюда: Погода в Ветлуге

Поиск расширенной информации на нашем сайте:

Другие новости

Новости СМИ2

Главная страница сайта

Новости сайта

03.07.2017

Напоминаем, что на нашем специализированном сайте Метеоцентр.Азия вы можете получить высокодетализированные автоматические прогнозы погоды по пунктам России, СНГ и мира в авиационном формате (включающие направление и скорость ветра, видимость, явления погоды, количество и форму облачности, нижнюю и верхнюю границу облачности).

Рекомендуем: Заказать услуги эвакуатора.

Погода в Ветлуге - сегодня

Время (UTC), дата Ветер
(°,м/с) 
Видим.   Явления Облачность Т
(°С)
Тd
(°С)
f(%) Тe
(°С)
Pmin
(гПа)
dP
(гПа)
Po
(мм)
O2
(г/м3)
Тmin Tmax R s Состояние
почвы
15 14.10.17 080 (В) 1-1{05}  20000 м    10/6 600 м средняя 
[Sc|Ac As]
+7.3 +5.8 90 +8  1006.8  0.7  743  291    +11.1     
18 14.10.17 070 (В) 1-1{02}  4000 м  дымка  10/8 600 м средняя, верхняя 
[Sc|Ac trans|Ci fib]
+6.2 +5.5 95 +7  1006.6  -0.3  743  292           
21 14.10.17 120 (ЮВ) 1-3{04}  4000 м  дымка  10/8 600 м средняя 
[Sc|Ac As]
+7.3 +6.8 97 +8  1005.4  -1.1  742  290           
00 15.10.17 330 (СЗ) 1-1{03}  10 км    10/10 300 м 
[Frnb|Ns]
+7.3 +6.8 97 +8  1003.5  -1.9  740  289           
03 15.10.17 360 (С) 2-3{03}  10 км  слаб. дождь  10/10 300 м 
[Frnb|Ns]
+7.7 +7.3 97 +8  1001.1  -2.3  739  288  +6.1    0.6     
06 15.10.17 340 (С) 1-2{03}  20000 м  дождь  10/10 300 м 
[Frnb|Ns]
+7.7 +7.3 97 +9  998.5  -2.6  737  287           
09 15.10.17 350 (С) 1-1{03}  20000 м  слаб. дождь  10/10 300 м 
[Frnb|Ns]
+8.2 +7.8 97 +9  996.1  -2.3  735  286           
12 15.10.17 190 (Ю) 3-6{07}  10 км  дождь  10/10 300 м 
[Frnb|Ns]
+6.4 +6 97 +5  996.5  0.3  735  288           
15 15.10.17 130 (ЮВ) 1-3{06}  10 км  дымка{дождь}  8/5 600 м кучево-дожд., средняя 
[Cb calv|Ac trans]
+4.3 +3.8 97 +5  997.6  736  291    +8.4  14     
18 15.10.17 090 (В) 1-3{03}  20000 м  {дождь}  10/6 600 м средняя 
[Sc|Ac As]
+5.4 +4.9 97 +6  998  0.4  736  290           
21 15.10.17 090 (В) 2-3{04}  20000 м    10/8 600 м средняя 
[Sc|Ac As]
+5.8 +5.3 97 +6  999.3  1.2  737  290           
00 16.10.17 060 (СВ) 1-2{04}  20000 м    10/6 600 м средняя 
[Sc|Ac As]
+5.6 +5.1 97 +6  1000.4  1.1  738  291           
03 16.10.17 070 (В) 1-3{04}  10 км  слаб. дождь  10/10 300 м 
[Sc]
+5.9 +5.2 95 +7  1003  2.6  740  291  +4.3    0.3    мокрая 
06 16.10.17 040 (СВ) 2-4{05}  20000 м  {дождь, морось}  10/10 300 м 
[St]
+6.4 +5.7 95 +6  1004.9  1.9  741  291           
09 16.10.17 010 (С) 2-3{05}  20000 м  слаб. морось  10/10 300 м 
[St]
+6.9 +5.6 91 +7  1007.1  2.3  743  291           
12 16.10.17 010 (С) 2-4{06}  20000 м  {морось}  10/10 300 м 
[St]
+7.8 +6.1 89 +8  1008.6  1.5  744  290           
15 16.10.17 330 (СЗ) 1-2{05}  20000 м    10/8 300 м средняя 
[Sc|Ac As]
+6.5 +5.6 94 +7  1009.8  1.1  745  292    +8.1  0.4     
18 16.10.17 320 (СЗ) 1-1{02}  20000 м    10/8 300 м средняя 
[St|Ac As]
+6.5 +5.8 95 +7  1010.5  0.7  746  292           
21 16.10.17 330 (СЗ) 1-1{02}  10 км  дымка  10/10 300 м 
[St]
+5.6 +5.1 97 +6  1009.6  -1  745  293           
00 17.10.17 210 (ЮЗ) 1-1{02}  10 км  дымка  10/10 300 м 
[St]
+5.3 +4.8 97 +6  1008.4  -1.2  744  293           
03 17.10.17 210 (ЮЗ) 2-5{05}  10 км  дымка  10/10 300 м 
[St]
+4.5 +4.3 99 +4  1006.6  -1.8  743  294  +4.5         
06 17.10.17 200 (Ю) 4-7{07}  20000 м    10/8 600 м кучево-дожд., средняя 
[Cb calv|Ac As]
+5 +4.3 95 +3  1003.8  -2.7  740  292           
09 17.10.17 240 (ЮЗ) 3-7{09}  20000 м  слаб. дождь  10/10 300 м 
[Frnb|Ns]
+4.8 +3.8 93 +4  1003.1  -0.7  740  292           
12 17.10.17 260 (З) 3-5{09}  20000 м  {дождь}  10/6 600 м средняя 
[Sc|Ac As]
+6.1 +4.7 91 +5  1003.8  0.8  741  291           
15 17.10.17 240 (ЮЗ) 2-4{05}  20000 м    10/6 600 м средняя 
[Sc|Ac As]
+5.8 +5.1 95 +6  1004.8  0.8  741  292    +6.1     
Время (UTC), дата Ветер
(°,м/с) 
Видим.   Явления Облачность Т
(°С)
Тd
(°С)
f(%) Тe
(°С)
Pmin
(гПа)
dP
(гПа)
Po
(мм)
O2
(г/м3)
Тmin Tmax R s Состояние
почвы

Для получения пояснительной информации подведите курсор к названию столбца.

ПОГОДА в Ветлуге - архив

Всё, что Вы хотите узнать о погоде в Ветлуге - удобно и подробно!

Выберите нужную дату (начиная с 1 января 2015* года) и нажмите кнопку "Найти".
Будут отображены архивные сводки погоды по пункту Ветлуга, начиная с указанной даты.


Отображать данные в формате CSV (для использования в таблицах Excel)


Внимание! Наш архив погоды предназначен исключительно для личного некоммерческого использования в познавательных целях. Если Вам необходимы официальные справки о состоянии погоды (для производственных, юридических, коммерческих и т.п. целей), обращайтесь в органы Росгидромета.

*Примечание: данная дата относится к архиву по метеостанциям СССР (Россия, СНГ, Балтия).
Архив по метеостанциям Зарубежной Европы и Азии (кроме Китая) хранится 10 дней, по другим регионам земного шара (Китай, Африка, Америка, Австралия, Океания) - 1 день.

Ветлуга - район местоположения метеостанции


Название, широта, долгота, высота метеостанции:
Ветлуга 57.9°ш. 45.8°д. 136 м над ур. моря [Российская Федерация]

Дополнительная информация

В oтличие oт бoльшинства пoгoдных сайтoв мы публикуем пoдрoбную метеoинфoрмацию в детальнoм прoфессиoнальнoм фoрмате.

Характеристики температуры и влажнoсти вoздуха измеряются на высoте 2 м в тени вдали oт зданий и деревьев.
Скoрoсть ветра измеряется на высoте 10 м (на урoвне рoста челoвека скoрoсть ветра ниже в 1.5-2 раза). Если метеoстанция нахoдится в гoрoде или в лесу, тo скoрoсть ветра занижена на 2-4 м/с пo сравнению с oткрытым местoм. Скoрoсть ветра над акватoриями крупных рек и oзёр, а также на вершинах хoлмoв на 2-5 м/с выше, чем в oбычных услoвиях.
Атмoсфернoе давление в разных тoчках местнoсти мoжет значительнo oтличаться oт давления на метеoстанции, в зависимoсти oт услoвий рельефа (при пoдъёме на 10 м давление пoнижается примернo на 1 мм рт.ст.).